Mount Holly, NJ

8:57 AM EDT on May 25, 2017 (GMT -0400)
South Jersey Regional

Weather History for KVAY - June, 2013

Change the Weather History Date:

Friday, June 28, 2013

  Actual Average (KPNE) Record (KPNE)
Temperature  
Mean Temperature 78 °F -  
Max Temperature 86 °F 83 °F 96 °F (2010)
Min Temperature 70 °F 64 °F 57 °F (2004)
Cooling Degree Days 13    
Growing Degree Days 28 (Base 50)    
Moisture  
Dew Point 68 °F    
Average Humidity 78    
Maximum Humidity 93    
Minimum Humidity 49    
Precipitation  
Precipitation 0.08 in - - ()
Sea Level Pressure  
Sea Level Pressure 29.54 in    
Wind  
Wind Speed 4 mph (SW)    
Max Wind Speed 12 mph    
Max Gust Speed 23 mph    
Visibility 9 miles    
Events Rain    
Averages and records for this station are not official NWS values.
T = Trace of Precipitation, MM = Missing Value Source: NWS Daily Summary

Daily Weather History Graph

Daily Weather History Graph

Search for Another Location

Airport or City:

Trip Planner

Search our weather history database for the weather conditions in past years. The results will help you decide how hot, cold, wet, or windy it might be!

Date:

Astronomy

Jun. 28, 2013 Rise Set
Actual Time 5:33 AM EDT 8:32 PM EDT
Civil Twilight 5:00 AM EDT 9:04 PM EDT
Nautical Twilight 4:18 AM EDT 9:46 PM EDT
Astronomical Twilight 3:30 AM EDT 10:34 PM EDT
Moon No Moon Rise 11:37 AM EDT (6/28)
Length of Visible Light 16h 04m
Length of Day
14h 58m
Waning Gibbous, 66% of the Moon is Illuminated
Jun 28
Waning Gibbous
Jun 30
Last Quarter
Jul 8
New
Jul 15
First Quarter
Jul 22
Full

Hourly Weather History & Observations

Time (EDT) Temp. Heat Index Dew Point Humidity Pressure Visibility Wind Dir Wind Speed Gust Speed Precip Events Conditions
12:54 AM 73.0 °F - 70.0 °F 90% 29.59 in 10.0 mi SSW 3.5 mph - N/A   Overcast
1:54 AM 73.0 °F - 70.0 °F 90% 29.58 in 10.0 mi Variable 4.6 mph - N/A   Scattered Clouds
2:54 AM 72.0 °F - 70.0 °F 93% 29.56 in 9.0 mi South 3.5 mph - N/A   Mostly Cloudy
3:54 AM 72.0 °F - 70.0 °F 93% 29.55 in 10.0 mi South 3.5 mph - N/A   Clear
4:54 AM 71.1 °F - 69.1 °F 93% 29.55 in 10.0 mi Calm Calm - N/A   Clear
5:54 AM 71.1 °F - 69.1 °F 93% 29.56 in 9.0 mi Calm Calm - N/A   Overcast
6:54 AM 73.0 °F - 71.1 °F 93% 29.57 in 10.0 mi Calm Calm - N/A   Clear
7:54 AM 77.0 °F - 69.1 °F 76% 29.56 in 10.0 mi WSW 6.9 mph - N/A   Clear
8:54 AM 78.1 °F - 68.0 °F 71% 29.55 in 10.0 mi WSW 8.1 mph 16.1 mph N/A   Scattered Clouds
9:54 AM 78.1 °F - 66.9 °F 68% 29.54 in 10.0 mi West 10.4 mph - N/A   Partly Cloudy
10:42 AM 78.8 °F - 66.2 °F 65% 29.54 in 10.0 mi WSW 5.8 mph - N/A   Overcast
10:54 AM 80.1 °F 82.3 °F 66.9 °F 64% 29.55 in 10.0 mi SW 11.5 mph 18.4 mph N/A   Overcast
11:02 AM 78.8 °F - 66.2 °F 65% 29.55 in 10.0 mi WSW 5.8 mph - N/A   Overcast
11:54 AM 82.0 °F 84.9 °F 68.0 °F 62% 29.56 in 10.0 mi WSW 11.5 mph - N/A   Mostly Cloudy
12:54 PM 82.9 °F 85.8 °F 68.0 °F 60% 29.55 in 10.0 mi SW 4.6 mph - N/A   Scattered Clouds
1:54 PM 84.0 °F 86.5 °F 66.9 °F 56% 29.54 in 10.0 mi Variable 5.8 mph - N/A   Partly Cloudy
2:54 PM 84.9 °F 87.6 °F 66.9 °F 55% 29.52 in 10.0 mi SW 6.9 mph - N/A   Partly Cloudy
3:54 PM 86.0 °F 87.6 °F 64.9 °F 49% 29.50 in 10.0 mi SSW 6.9 mph - N/A   Partly Cloudy
4:54 PM 82.9 °F 85.4 °F 66.9 °F 58% 29.49 in 10.0 mi Calm Calm - N/A   Clear
5:54 PM 73.9 °F - 69.1 °F 85% 29.53 in 4.0 mi SSW 8.1 mph 23.0 mph 0.02 in Rain Light Rain
6:04 PM 71.6 °F - 68.0 °F 88% 29.52 in 2.0 mi WSW 6.9 mph - 0.02 in Rain Rain
6:13 PM 71.6 °F - 68.0 °F 88% 29.53 in 10.0 mi Calm Calm - 0.02 in Rain Light Rain
6:54 PM 72.0 °F - 66.9 °F 84% 29.52 in 5.0 mi SW 6.9 mph - 0.03 in Rain Light Rain
7:54 PM 71.1 °F - 66.9 °F 87% 29.54 in 7.0 mi Variable 4.6 mph - 0.03 in Rain Light Rain
8:54 PM 70.0 °F - 66.9 °F 90% 29.53 in 10.0 mi Calm Calm - 0.00 in   Partly Cloudy
9:54 PM 70.0 °F - 68.0 °F 93% 29.55 in 10.0 mi Calm Calm - N/A   Mostly Cloudy
10:54 PM 70.0 °F - 66.9 °F 90% 29.53 in 10.0 mi Calm Calm - N/A   Partly Cloudy
11:54 PM 70.0 °F - 68.0 °F 93% 29.53 in 10.0 mi Calm Calm - 0.00 in   Clear